Tracking 29528 objects as of 12-Sep-2024
HD Live streaming from Space Station
objects crossing your sky now

STARLINK-5412

Track STARLINK-5412 now!
10-day predictions
STARLINK-5412 is classified as:


NORAD ID: 54806
Int'l Code: 2022-175BA
Perigee: 546.0 km
Apogee: 547.8 km
Inclination: 53.2 °
Period: 95.4 minutes
Semi major axis: 6917 km
RCS: Unknown
Launch date: December 17, 2022
Source: United States (US)
Launch site: AIR FORCE EASTERN TEST RANGE (AFETR)
Your satellite tracking list
Your tracking list is empty




NASA's NSSDC Master Catalog

Two Line Element Set (TLE):
1 54806U 22175BA  24255.45033797  .00000715  00000-0  62992-4 0  9991
2 54806  53.2167 311.8985 0001323  92.9889 267.1254 15.08835235 97977
Source of the keplerian elements: AFSPC